CZ-6A R/B, 61570

Orbit data source: Space-Track

CZ-6A R/B, 61570 is space debris in LEO originally from a launch on Tue, 15 Oct 2024 UTC launched from the Taiyaun Space Center, China (TSC). Debris objects in space refer to the collection of defunct objects orbiting the Earth. Examples of debris include non-operational satellites, rocket bodies, and fragments generated from explosions, collisions, or faulty payload assembly.

Loading next visibility...
Identifier
61570, 2024-185U
Orbit
LEO
Country
Flag of CNCN / PRC
Related business
Manufacturer
SAST
Mission
Spacecraft
Bus & Motor
CZ-6A STAGE 2, YF-115
Mass
~6,000 kg wet, ~6,000 kg dry
Launch date (UTC)
2024-10-15 (2 years ago)
Launch vehicle
Unknown
Launch site
Taiyaun Space Center, China (TSC)
Object type
Payload
Rocket body
Debris
Shape & HBR
CYL, 5.5 m
Radar Cross Section
Large (>1 m²)

Expand to show TLE details & history
Last TLE update: 6 hours ago

TLE from 6 hours ago
0 CZ-6A R/B
1 61570U 24185U   26221.83019317  .00000202  00000-0  43018-4 0  9998
2 61570  89.0196  48.8197 0098845  13.9372 346.4527 14.51812544 95448
Epoch: 2026-08-09T19:55Z
TLE epoch observation values (Epoch: 2026-08-09T19:55:28.689Z)
Latitude
-0.00006°
Longitude
151.6286°
Altitude
654.65 km
Speed
7.566 km/s
True Right ascension
03h 15m 16s
True Declination
0° 00' 00"
Sunlit
Object was in daylight at epoch
Visualization orbit readout
Latitude
Unknown
Longitude
Unknown
Altitude
Unknown
Speed
Unknown
Apparent Right ascension
Unknown
Apparent Declination
Unknown
Sunlit
N/A
Visualization observer readout
Local Sidereal Time
15:49:09
Azimuth
Unknown
Elevation
Unknown
Doppler factor
Unknown
Orbital elements
Apogee altitude
786.768 km
Perigee altitude
646.512 km
Semi-major axis
7,094.777 km
Eccentricity
0.00988
Inclination
89.0196°
RAAN
48.8197°
Arg. of periapsis
13.9372°
True anomaly
346.18415°
Mean anomaly
346.4527°
Eccentric anomaly
346.31875°
Mean motion
3.63191 °/min
Orbital period
99.12 mins
BSTAR
0.000043018
Loading maneuver chart data...
Computing Atmospheric mass density...
Loading historical data...
Loading historical data...
Loading historical data...
Loading historical data...
Loading historical data...
Loading historical data...
Loading historical data...

Documentation

Showing up to 5 results
|